Regional Weather Roundup
Issued by NWS

Home | Current Version | Previous Version | Text Only | Print | Product List | Glossary On
Versions: 1 2 3 4 5 6 7 8 9 10 11 12 13 14 15 16 17 18 19 20 21 22 23 24 25 26 27 28 29 30 31 32 33 34 35 36 37 38 39 40 41 42 43 44 45 46 47 48 49 50
000
ASUS45 KABQ 231310
RWRNM
NEW MEXICO REGIONAL WEATHER ROUNDUP
NATIONAL WEATHER SERVICE ALBUQUERQUE NM
700 AM MDT SAT JUL 23 2016

NOTE: "FAIR" MEANS FEW OR NO CLOUDS BELOW 12,000 FEET AGL WITH NO
       SIGNIFICANT WEATHER OR OBSTRUCTIONS TO VISION.

      THIS PRODUCT IS RELEASED AS TWO VERSIONS.  ONE VERSION NEAR
      THE TOP OF THE HOUR CONTAINING PRELIMINARY DATA FROM ALBUQUERQUE
      AND OTHER STATIONS.  A FINAL VERSION WITH ADDITIONAL DATA IS
      ISSUED ABOUT 10 MINUTES AFTER THE HOUR.

NMZ501-503-504-510>518-231400-
NORTHWEST PLATEAU/NORTHCENTRAL MOUNTAINS

CITY           SKY/WX    TMP DP  RH WIND       PRES   REMARKS
FARMINGTON     FAIR      66  46  48 NE3       30.19S
LOS ALAMOS     FAIR      69  46  42 NW8       30.31S
SANTA FE       FAIR      72  48  42 N13       30.21S
TAOS           FAIR      59  39  47 N8        30.32R
ANGEL FIRE     FAIR      55  47  73 CALM      30.42S

$$
NMZ402-403-502-505>509-231400-
WESTCENTRAL MOUNTAINS/SOUTHWEST MOUNTAINS

CITY           SKY/WX    TMP DP  RH WIND       PRES   REMARKS
GALLUP         FAIR      63  50  62 CALM      30.28R
GRANTS         FAIR      58  48  70 NW3       30.31R
SILVER CITY    FAIR      69  48  47 NW8       30.16S

$$
NMZ407-409-411-412-231400-
SOUTHERN DESERTS

CITY           SKY/WX    TMP DP  RH WIND       PRES   REMARKS
LORDSBURG      FAIR      70  52  52 N5        30.10R
DEMING         FAIR      77  49  37 E8        30.07R
LAS CRUCES     FAIR      72  42  33 N3        30.09R
HOLLOMAN AFB   FAIR      76  43  30 N5        30.06R
ALAMOGORDO     FAIR      73  43  33 N6        30.09R
T OR C         FAIR      75  49  39 NW7       30.12R

$$
NMZ519>523-231400-
CENTRAL VALLEYS/CENTRAL HIGHLANDS

CITY           SKY/WX    TMP DP  RH WIND       PRES   REMARKS
ALBUQUERQUE    FAIR      69  51  52 SE7       30.18R
DOUBLE EAGLE   MOCLDY    72  50  46 W10       30.21R
MORIARTY ARPT  FAIR      64  43  45 S5        30.24S
CLINES CORNERS FAIR      66  45  46 W5        30.29S
BELEN          FAIR      68  48  48 CALM      30.18R
SOCORRO        FAIR      74  48  40 CALM      30.15R

$$
NMZ524>526-539-540-231400-
SOUTHCENTRAL MOUNTAINS

CITY           SKY/WX    TMP DP  RH WIND       PRES   REMARKS
RUIDOSO          N/A     63  43  48 N5        30.31S

$$
NMZ527>531-231400-
NORTHEAST HIGHLANDS/NORTHEAST PLAINS

CITY           SKY/WX    TMP DP  RH WIND       PRES   REMARKS
LAS VEGAS      FAIR      65  45  48 N8        30.27R
RATON          FAIR     N/A N/A N/A NE5       30.21R
CLAYTON        FAIR      76  47  35 SW10      30.10S

$$
NMZ532>537-231400-
EASTCENTRAL PLAINS

CITY           SKY/WX    TMP DP  RH WIND       PRES   REMARKS
TUCUMCARI      FAIR      78  50  37 SW10      30.07R
CANNON AFB     FAIR      72  53  51 SW5       30.13R
CLOVIS AIRPORT FAIR      68  52  56 SW6       30.13R

$$
NMZ028-029-538-231400-
SOUTHEAST PLAINS

CITY           SKY/WX    TMP DP  RH WIND       PRES   REMARKS
ROSWELL        FAIR      71  48  43 CALM      30.07R
ARTESIA        FAIR      72  52  49 SE7       30.07R
CARLSBAD       FAIR      74  53  48 S5        30.04R
HOBBS          SUNNY     73  55  53 SE8       30.11R


$$




USA.gov is the U.S. government's official web portal to all federal, state and local government web resources and services.